Vertical_Velocity
2 2 1 1 -2 -3 -3 -1 2 2 0 2 0 3 -2 2 -2 0 -0 1 2 -1 2 0 0 -0 1 1 -3 -0 -2 -3 -2
-0 -0 -0 -1 -3 -2 0 1 1 0 -2 -0 3 -1 -1 -0 -0 1 1 -0 2 -2 2 2 -0 2 1 0 0 -1 1 -1 1
0 0 -1 -1 1 2 -1 -1 -1 -0 -3 1 -2 0 -1 -2 -1 -1 2 0 1 -2 -1 1 0 -3 1 -0 -1 -1 1 -2 -0
-1 -2 0 0 -0 1 1 -1 -1 -0 -1 -1 -0 -3 -0 -0 1 -0 -1 0 2 -1 1 1 0 0 0 -0 -1 -0 0 -1 1
0 1 1 -1 1 -0 1 -1 -1 -2 1 -0 -0 -0 -2 1 1 -1 0 0 1 0 2 -1 2 -2 1 1 0 -0 -1 -1 -1
1 0 1 0 0 0 -1 -2 -3 -1 1 -2 -1 1 -1 -0 1 2 1 -1 1 -2 2 -1 -2 1 -0 -0 2 -1 -0 -2 0
-2 -1 -0 -1 -0 -2 -1 1 -2 1 2 -1 0 1 -0 -1 2 2 1 -2 -0 -3 1 1 1 -0 -2 0 -0 1 -2 -0 -3
0 1 -0 1 -1 -0 -1 -3 0 2 -1 -1 0 0 -0 -2 1 -0 1 0 -1 0 0 3 -0 1 1 1 1 -1 1 0 1
2 0 1 0 -1 -1 -1 0 -0 -1 -1 -0 -1 0 -1 -0 0 -0 -0 -0 1 -3 3 2 1 -0 0 0 2 -3 -2 1 -0
1 1 -2 1 -1 0 -0 -0 -1 0 -0 -1 -2 -0 -1 -1 1 -0 -1 1 -4 -1 1 4 1 -1 -0 1 -3 -2 1 2 0
0 1 0 -0 -1 0 -0 -0 0 0 -1 1 0 0 1 -1 -1 -0 -0 -1 -2 -2 -1 1 2 1 0 -0 1 -0 0 0 -1
-0 -1 -0 1 1 1 0 1 0 1 0 0 0 -0 -0 -1 -1 -0 -2 -0 -2 0 0 -2 0 -0 -1 -2 -4 -1 0 0 -1
1 -0 -1 -1 -0 0 0 -1 0 1 0 -0 0 -0 -1 -0 -1 -0 -1 -1 -1 -0 0 -0 -1 -0 -1 -2 -3 1 -1 -1 0
1 1 1 1 0 -1 -0 -0 0 1 -0 -0 -0 -0 -0 -1 -0 0 1 -0 0 0 -0 0 -0 -0 -0 -2 -4 -2 -1 -1 -2
1 1 0 0 1 0 0 -0 -1 -0 -0 -1 0 -1 -0 0 0 -0 0 0 1 1 1 1 1 0 1 -2 -4 0 -1 -1 -1
1 1 1 0 1 -1 -1 -1 -1 -0 1 -0 -0 -0 0 1 -0 -1 0 -0 -0 1 0 0 -1 1 1 -0 -0 -4 -4 -3 1
1 1 1 1 1 2 1 1 1 1 -1 1 -0 -2 -1 -0 -0 1 -1 1 1 1 -1 0 0 2 3 2 -0 -3 -4 2 0
2 1 1 1 1 2 1 0 -0 3 -0 -0 -1 0 -1 2 -0 0 1 0 1 1 2 2 1 2 2 1 -0 -3 -6 -1 2
1 1 1 1 2 2 2 1 2 -0 1 -0 -0 -0 0 -1 0 -2 0 0 0 1 1 0 0 0 0 -1 -0 -1 -2 -2 0
0 1 1 1 1 2 1 1 2 1 2 1 1 0 0 0 0 -0 1 -1 0 0 -1 -0 -1 -0 -0 1 0 0 0 -1 0
Height
3166 3168 3169 3171 3172 3173 3173 3172 3173 3175 3176 3177 3178 3179 3180 3181 3182 3182 3183 3183 3184 3185 3186 3187 3188 3189 3190 3190 3191 3192 3192 3193 3193
3164 3165 3166 3167 3169 3170 3171 3172 3172 3173 3174 3175 3177 3178 3178 3180 3181 3183 3183 3183 3185 3185 3186 3187 3188 3189 3190 3191 3191 3192 3192 3192 3193
3162 3163 3164 3165 3166 3167 3169 3170 3171 3171 3172 3173 3175 3176 3177 3179 3180 3181 3183 3184 3185 3185 3186 3187 3188 3189 3190 3191 3191 3192 3192 3193 3193
3158 3160 3161 3161 3163 3164 3166 3167 3168 3169 3171 3172 3173 3174 3176 3178 3179 3180 3181 3183 3184 3185 3186 3186 3187 3188 3189 3190 3190 3191 3192 3192 3192
3155 3157 3158 3159 3161 3162 3164 3166 3167 3167 3169 3170 3172 3174 3175 3176 3177 3178 3180 3181 3183 3184 3185 3185 3187 3187 3188 3189 3190 3191 3191 3191 3192
3153 3154 3156 3158 3159 3160 3162 3164 3165 3166 3167 3169 3170 3171 3173 3174 3175 3177 3179 3180 3181 3182 3183 3184 3185 3186 3187 3188 3189 3190 3190 3191 3191
3151 3152 3154 3155 3157 3158 3159 3161 3162 3163 3165 3166 3168 3169 3171 3172 3174 3175 3177 3178 3179 3180 3181 3183 3183 3185 3186 3187 3187 3188 3189 3189 3189
3148 3149 3151 3152 3153 3154 3157 3157 3159 3160 3162 3163 3165 3166 3169 3170 3172 3173 3175 3176 3177 3178 3180 3181 3182 3182 3183 3184 3185 3186 3186 3187 3187
3146 3147 3148 3149 3150 3152 3153 3155 3157 3158 3159 3161 3162 3164 3166 3167 3169 3171 3172 3174 3175 3176 3178 3179 3180 3180 3182 3182 3183 3184 3185 3185 3185
3142 3144 3144 3146 3147 3149 3150 3152 3153 3155 3156 3158 3160 3161 3163 3165 3167 3168 3169 3171 3172 3173 3175 3176 3177 3178 3179 3180 3181 3181 3182 3182 3183
3139 3140 3142 3143 3144 3146 3147 3149 3150 3151 3153 3155 3156 3158 3160 3161 3163 3165 3166 3168 3169 3169 3171 3174 3175 3175 3176 3177 3178 3178 3179 3179 3180
3136 3138 3139 3140 3141 3142 3143 3145 3146 3148 3150 3152 3153 3155 3156 3157 3159 3161 3163 3165 3165 3167 3168 3170 3171 3173 3174 3175 3175 3175 3176 3177 3177
3133 3134 3135 3136 3137 3139 3140 3141 3143 3144 3146 3147 3149 3151 3152 3154 3155 3157 3159 3161 3163 3164 3165 3166 3168 3170 3170 3171 3171 3172 3173 3173 3174
3128 3129 3130 3132 3133 3135 3136 3137 3139 3141 3142 3144 3145 3146 3148 3150 3151 3153 3155 3157 3159 3160 3162 3163 3164 3166 3167 3168 3167 3168 3169 3170 3171
3124 3125 3126 3127 3128 3130 3131 3133 3135 3136 3138 3139 3140 3142 3143 3145 3147 3148 3150 3152 3154 3156 3157 3159 3160 3161 3162 3164 3164 3164 3165 3166 3167
3119 3120 3121 3122 3123 3124 3126 3128 3129 3131 3133 3135 3136 3137 3139 3141 3142 3144 3146 3147 3149 3151 3153 3154 3155 3157 3159 3160 3160 3160 3162 3163 3163
3113 3114 3115 3116 3117 3119 3121 3123 3124 3126 3128 3130 3131 3133 3135 3136 3138 3140 3141 3143 3145 3146 3148 3149 3151 3153 3153 3155 3156 3157 3158 3160 3160
3106 3107 3109 3110 3111 3113 3114 3116 3118 3120 3122 3124 3126 3128 3130 3132 3134 3135 3137 3138 3140 3142 3143 3145 3147 3148 3149 3151 3152 3153 3154 3155 3156
3098 3099 3101 3103 3104 3106 3108 3109 3111 3113 3116 3117 3120 3122 3125 3126 3129 3131 3132 3134 3136 3137 3139 3140 3142 3143 3145 3147 3148 3148 3148 3149 3151
3089 3091 3092 3094 3096 3098 3100 3102 3104 3106 3109 3111 3113 3116 3118 3120 3123 3124 3126 3128 3129 3131 3133 3135 3137 3138 3140 3141 3142 3142 3143 3144 3146